SCP
0 0 0 0 0 0 0 0 0 0 0 0 0 0 0 0 0 0 0 0 0 0 0 0 0 0 0 0 0 0 0 0 0 0 0 0 0 0 0 0 0 0 0
0 0 0 0 0 0 0 0 0 0 0 0 0 0 0 0 0 0 0 0 0 0 0 0 0 0 0 0 0 0 0 0 0 0 0 0 0 0 0 0 0 0 0
0 0 0 0 0 0 0 0 0 0 0 0 0 0 0 0 0 0 0 0 0 0 0 0 0 0 0 0 0 0 0 0 0 0 0 0 0 0 0 0 0 0 0
0 0 0 0 0 0 0 0 0 0 0 0 0 0 0 0 0 0 0 0 0 0 0 0 0 0 0 0 0 0 0 0 0 0 0 0 0 0 0 0 0 0 0
0 0 0 0 0 0 0 0 0 0 0 0 0 0 0 0 0 0 0 0 0 0 0 0 0 0 0 0 0 0 0 0 0 0 0 0 0 0 0 0 0 0 0
0 0 0 0 0 0 0 0 0 0 0 0 0 0 0 0 0 0 0 0 0 0 0 0 0 0 0 0 0 0 0 0 0 0 0 0 0 0 0 0 0 0 0
0 0 0 0 0 0 0 0 0 0 0 0 0 0 0 0 0 0 0 0 0 0 0 0 0 0 0 0 0 0 0 0 0 0 0 0 0 0 0 0 0 0 0
0 0 0 0 0 0 0 0 0 0 0 0 0 0 0 0 0 0 0 0 0 0 0 0 0 0 0 0 0 0 0 0 0 0 0 0 0 0 0 0 0 0 0
0 0 0 0 0 0 0 0 0 0 0 0 0 0 0 0 0 0 0 0 0 0 0 0 0 0 0 0 0 0 0 0 0 0 0 0 0 0 0 0 0 0 0
0 0 0 0 0 0 0 0 0 0 0 0 0 0 0 0 0 0 0 0 0 0 0 0 0 0 0 0 0 0 0 0 0 0 0 0 0 0 0 0 0 0 0
0 0 0 0 0 0 0 0 0 0 0 0 0 0 0 0 0 0 0 0 0 0 0 0 0 0 0 0 0 0 0 0 0 0 0 0 0 0 0 0 0 0 0
0 0 0 0 0 0 0 0 0 0 0 0 0 0 0 0 0 0 0 0 0 0 0 0 0 0 0 0 0 0 0 0 0 0 0 0 0 0 0 0 0 0 0
0 0 0 0 0 0 0 0 0 0 0 0 0 0 0 0 0 0 0 0 0 0 0 0 0 0 0 0 0 0 0 0 0 0 0 0 0 0 0 0 0 0 0
0 0 0 0 0 0 0 0 0 0 0 0 0 0 0 0 0 0 0 0 0 0 0 0 0 0 0 0 0 0 0 0 0 0 0 0 0 0 0 0 0 0 0
0 0 0 0 0 0 0 0 0 0 0 0 0 0 0 0 0 0 0 0 0 0 0 0 0 0 0 0 0 0 0 0 0 0 0 0 0 0 0 0 0 0 0
0 0 0 0 0 0 0 0 0 0 0 0 0 0 0 0 0 0 0 0 0 0 0 0 0 0 0 0 0 0 0 0 0 0 0 0 0 0 0 0 0 0 0
0 0 0 0 0 0 0 0 0 0 0 0 0 0 0 0 0 0 0 0 0 0 0 0 0 0 0 0 0 0 0 0 0 0 0 0 0 0 0 0 0 0 0
0 0 0 0 0 0 0 0 0 0 0 0 0 0 0 0 0 0 0 0 0 0 0 0 0 0 0 0 0 0 0 0 0 0 0 0 0 0 0 0 0 0 0
0 0 0 0 0 0 0 0 0 0 0 0 0 0 0 0 0 0 0 0 0 0 0 0 0 0 0 0 0 0 0 0 0 0 0 0 0 0 0 0 0 0 0
0 0 0 0 0 0 0 0 0 0 0 0 0 0 0 0 0 0 0 0 0 0 0 0 0 0 0 0 0 0 0 0 0 0 0 0 0 0 0 0 0 0 0
0 0 0 0 0 0 0 0 0 0 0 0 0 0 0 0 0 0 0 0 0 0 0 0 0 0 0 0 0 0 0 0 0 0 0 0 0 0 0 0 0 0 0
0 0 0 0 0 0 0 0 0 0 0 0 0 0 0 0 0 0 0 0 0 0 0 0 0 0 0 0 0 0 0 0 0 0 0 0 0 0 0 0 0 0 0
0 0 0 0 0 0 0 0 0 0 0 0 0 0 0 0 0 0 0 0 0 0 0 0 0 0 0 0 0 0 0 0 0 0 0 0 0 0 0 0 0 0 -0
0 0 0 0 0 0 0 0 0 0 0 0 0 0 0 0 0 0 0 0 0 0 0 0 0 0 0 0 0 0 0 0 0 0 0 0 0 0 0 0 0 0 0
0 0 0 0 0 0 0 0 0 0 0 0 0 0 0 0 0 0 0 0 0 0 0 0 0 0 0 0 0 0 0 0 0 0 0 0 0 0 0 0 0 0 0
0 0 0 0 0 0 0 0 0 0 0 0 0 0 0 0 0 0 0 0 0 0 0 0 0 0 0 0 0 0 0 0 0 0 0 0 0 0 0 0 0 0 0
Wind_Speed_500mb
28 29 30 29 28 28 27 26 27 28 29 30 32 34 35 34 35 36 38 38 40 41 42 42 43 44 44 44 43 42 40 38 35 33 34 36 37 39 41 39 36 35 34
31 33 33 33 31 30 31 32 32 33 34 35 37 39 41 41 42 41 42 42 41 42 42 43 43 44 46 47 49 49 48 46 43 42 40 40 42 44 43 42 40 41 37
35 35 35 36 34 33 34 36 37 37 39 39 43 43 44 45 46 46 45 45 44 44 45 45 46 46 47 47 48 51 54 54 52 49 50 50 51 50 51 51 50 48 46
40 42 40 39 38 39 39 41 40 42 43 44 46 44 45 46 47 49 50 51 52 52 52 50 51 52 51 52 52 53 56 57 58 58 56 57 58 56 57 57 56 55 53
44 45 45 41 39 43 44 42 43 45 46 45 45 46 47 49 50 52 56 60 63 63 63 60 55 53 53 52 53 56 57 58 59 63 63 62 62 63 62 61 60 60 58
49 49 48 44 40 44 45 44 45 44 46 46 46 49 52 54 59 61 62 62 63 59 52 47 42 39 41 42 44 46 49 52 55 61 68 69 66 67 67 66 64 62 63
51 50 50 47 45 47 47 47 49 50 50 48 51 57 60 61 64 64 53 34 42 37 35 36 38 38 48 44 42 45 47 49 53 54 53 66 72 70 70 69 68 68 66
42 55 51 52 50 49 49 50 51 54 55 54 53 56 56 59 59 44 42 57 35 34 38 40 40 48 50 46 51 48 51 52 53 54 54 58 61 69 72 72 71 70 72
34 37 55 48 48 50 49 49 51 49 51 51 53 48 25 29 51 62 44 48 54 53 54 53 49 50 55 60 63 60 56 53 54 55 55 57 60 59 65 73 74 74 73
34 27 30 53 45 46 47 45 45 47 46 49 50 54 56 59 53 46 53 66 62 58 53 54 58 58 58 63 62 56 52 49 49 49 50 52 59 63 60 61 70 74 76
28 24 20 25 38 41 38 36 36 40 40 43 45 48 52 56 58 62 63 64 68 69 65 68 62 58 58 55 53 53 47 43 42 43 46 49 51 54 61 67 70 72 74
31 33 31 27 28 34 37 36 36 37 38 41 43 45 48 51 56 59 63 65 68 74 72 71 69 59 52 50 48 42 42 40 42 44 42 45 45 43 47 54 64 71 76
38 35 33 30 29 29 29 33 35 34 33 39 41 42 44 49 50 53 59 69 71 74 73 70 69 62 57 56 50 46 45 43 43 46 46 45 47 43 45 50 50 49 55
35 33 30 29 31 32 31 33 34 35 38 40 40 39 43 46 48 53 55 61 72 72 65 69 72 71 60 59 53 47 57 57 55 48 44 45 46 46 47 48 50 55 59
25 24 23 22 22 23 24 26 28 32 36 41 44 47 49 50 47 47 48 52 57 69 72 74 74 68 66 62 57 54 53 51 53 53 51 48 51 49 52 55 56 54 56
12 11 12 14 17 20 22 25 27 30 31 34 38 41 43 44 44 42 44 47 47 57 78 72 73 74 69 61 55 56 54 55 55 57 58 54 57 51 51 47 49 51 54
8 12 15 19 21 23 25 26 27 28 29 30 32 35 37 40 44 49 50 47 49 49 52 67 61 57 58 58 60 55 59 65 60 54 54 56 66 58 45 45 49 52 55
12 17 20 23 25 26 26 26 27 29 30 31 31 32 33 32 33 32 32 38 45 55 63 77 83 82 75 67 64 70 62 59 56 48 59 61 58 65 42 38 41 45 49
19 21 24 27 29 30 31 31 31 31 32 33 33 32 32 31 32 35 35 35 36 40 43 53 72 68 66 65 68 71 75 76 63 57 46 61 59 44 40 43 37 46 48
26 25 26 29 31 31 32 32 33 33 33 33 33 31 30 31 34 36 35 36 39 43 42 45 52 62 62 59 55 61 60 57 57 50 54 66 59 45 48 40 45 53 54
28 28 30 30 31 34 36 38 38 37 36 35 34 32 30 29 33 32 38 39 41 43 43 48 51 56 58 59 58 59 59 57 52 54 49 49 53 42 43 49 49 55 59
32 34 37 35 34 37 40 42 40 39 37 36 35 33 33 33 34 35 34 36 39 42 43 43 49 52 55 55 55 58 58 56 59 51 60 62 58 53 47 48 48 52 53
37 37 36 36 35 39 42 45 41 39 38 36 36 35 35 36 38 42 41 41 38 30 34 40 44 45 53 52 56 58 56 56 57 56 57 62 53 50 38 43 49 53 50
40 37 35 33 33 36 40 44 42 39 36 35 35 36 37 36 37 43 47 46 42 39 31 30 36 43 46 49 48 52 54 55 57 55 50 51 51 62 41 47 45 37 46
40 36 33 32 31 32 35 36 35 35 35 35 34 35 35 35 34 37 44 47 46 43 40 36 33 34 37 40 44 47 49 48 51 50 50 49 57 49 61 45 30 35 43
37 32 29 27 25 26 28 30 33 34 33 32 30 31 34 37 38 35 40 42 47 45 43 41 43 44 38 28 38 44 47 49 48 50 39 41 50 46 24 35 31 41 44
Wind_Direction_500mb
253 255 260 263 268 271 278 279 284 287 290 292 294 298 295 294 292 292 291 288 287 287 288 287 286 286 285 284 284 283 281 275 271 267 260 258 260 260 262 268 275 284 290
256 255 257 263 268 274 281 283 285 288 287 288 287 288 294 297 298 297 296 294 291 289 288 289 287 286 285 282 281 280 278 275 268 268 265 262 261 263 263 263 268 276 284
265 265 264 265 270 272 273 274 276 279 283 284 286 289 293 296 296 296 296 294 294 294 295 294 293 290 287 283 280 278 275 273 271 265 264 264 261 259 260 261 263 269 277
270 270 268 270 270 269 271 273 277 279 280 282 286 288 288 291 294 297 297 298 298 297 296 294 293 292 289 287 283 278 275 271 269 267 264 263 264 264 263 261 262 263 266
266 268 270 270 267 267 267 271 273 275 278 282 286 288 289 290 293 295 296 297 297 297 296 296 293 290 288 287 285 282 278 275 270 267 265 262 262 264 263 263 263 263 264
264 266 268 270 268 266 266 266 263 263 269 276 280 285 287 287 288 291 291 298 296 294 295 294 294 294 295 293 291 289 287 284 279 272 266 263 261 261 263 264 264 264 263
261 258 265 268 268 264 264 260 264 265 270 276 280 283 285 287 288 294 303 300 305 299 294 295 299 299 296 294 296 299 298 294 293 287 283 266 262 261 260 261 263 264 265
261 255 252 257 256 258 260 261 263 268 272 277 279 286 289 292 298 300 298 305 300 295 294 294 292 299 299 296 306 302 297 294 292 287 284 280 273 263 260 260 261 261 262
270 257 250 250 253 257 262 260 263 267 272 275 276 274 281 282 295 300 298 296 290 288 298 300 295 294 292 295 297 294 292 290 288 285 282 277 273 273 264 260 259 259 260
266 260 256 245 249 258 265 265 266 267 269 271 276 276 278 282 287 295 293 295 295 297 298 294 295 292 291 289 291 287 288 288 286 287 286 280 274 270 265 258 257 259 262
262 269 250 240 241 257 273 275 272 274 276 276 278 282 285 288 288 288 286 294 297 301 303 303 302 296 293 291 297 292 294 291 285 280 280 281 279 271 265 262 261 261 260
249 255 253 250 243 251 264 269 271 271 274 275 275 278 280 281 285 290 290 293 295 299 302 306 306 303 298 304 305 301 303 293 289 282 277 280 276 279 278 271 266 262 257
251 254 262 262 259 264 270 273 275 273 273 273 277 281 283 283 288 289 290 293 295 302 301 300 305 300 302 311 306 299 301 296 292 289 285 279 278 279 281 281 280 279 272
254 254 253 258 264 271 276 276 277 277 279 276 275 275 274 277 283 286 287 292 296 296 294 295 299 304 302 307 309 303 301 303 299 290 282 275 276 282 277 278 273 271 270
239 243 249 256 264 273 279 283 284 283 280 280 278 278 278 276 272 278 280 284 289 295 294 297 298 304 305 305 303 301 300 299 298 298 283 270 274 271 274 276 278 278 277
237 252 269 279 284 286 286 286 285 287 287 285 285 285 283 280 277 275 277 279 284 288 290 295 299 304 309 306 305 306 303 303 296 294 288 277 274 274 282 282 284 282 283
282 291 294 296 298 299 298 299 300 299 298 297 295 293 291 290 287 281 279 274 275 279 293 291 295 303 309 312 311 306 299 300 297 293 289 278 278 263 281 291 293 287 283
298 302 304 304 305 305 305 306 305 305 306 306 304 301 300 300 299 300 294 285 281 272 278 280 284 290 293 293 297 303 307 303 303 300 298 281 289 292 285 288 297 306 293
292 295 301 306 306 308 309 312 315 315 315 314 315 315 314 313 309 307 309 311 311 307 303 297 293 299 305 304 302 297 294 296 296 296 288 291 291 285 275 286 306 317 314
285 293 302 302 302 305 308 311 312 312 311 311 312 312 314 313 313 313 315 316 315 313 318 317 313 312 311 312 310 313 312 310 313 298 284 287 291 268 265 293 302 314 319
284 296 296 296 300 303 305 307 310 311 310 308 307 308 306 307 305 310 310 315 317 316 314 313 313 314 316 315 317 315 315 311 302 300 295 297 297 272 290 293 301 311 315
289 287 287 288 292 296 301 305 309 310 311 311 312 312 313 311 311 307 310 308 310 308 308 310 309 312 313 314 314 309 307 308 306 302 308 303 303 300 273 288 308 314 317
271 271 274 279 287 293 299 302 306 308 310 313 315 316 317 318 318 317 319 322 319 305 293 296 300 304 307 307 309 307 305 300 297 302 300 300 307 305 292 287 316 316 325
263 264 269 275 282 289 296 301 309 311 314 317 319 318 319 322 320 319 320 324 326 324 318 307 301 300 296 305 304 308 307 299 294 295 300 304 308 306 301 309 301 311 332
257 258 263 270 279 285 291 300 305 311 318 323 328 327 324 323 324 320 318 322 324 324 321 321 313 307 298 294 301 301 298 301 303 303 303 302 306 305 313 315 299 318 329
250 255 261 269 278 289 298 304 311 318 323 327 331 330 327 327 327 325 320 321 322 324 326 327 326 326 326 298 290 295 297 300 300 306 300 304 300 308 310 309 310 313 321
Wind_Speed_850mb
28 29 30 29 28 28 27 26 27 28 29 30 32 34 35 34 35 36 38 38 40 41 42 42 43 44 44 44 43 42 40 38 35 33 34 36 37 39 41 39 36 35 34
31 33 33 33 31 30 31 32 32 33 34 35 37 39 41 41 42 41 42 42 41 42 42 43 43 44 46 47 49 49 48 46 43 42 40 40 42 44 43 42 40 41 37
35 35 35 36 34 33 34 36 37 37 39 39 43 43 44 45 46 46 45 45 44 44 45 45 46 46 47 47 48 51 54 54 52 49 50 50 51 50 51 51 50 48 46
40 42 40 39 38 39 39 41 40 42 43 44 46 44 45 46 47 49 50 51 52 52 52 50 51 52 51 52 52 53 56 57 58 58 56 57 58 56 57 57 56 55 53
44 45 45 41 39 43 44 42 43 45 46 45 45 46 47 49 50 52 56 60 63 63 63 60 55 53 53 52 53 56 57 58 59 63 63 62 62 63 62 61 60 60 58
49 49 48 44 40 44 45 44 45 44 46 46 46 49 52 54 59 61 62 62 63 59 52 47 42 39 41 42 44 46 49 52 55 61 68 69 66 67 67 66 64 62 63
51 50 50 47 45 47 47 47 49 50 50 48 51 57 60 61 64 64 53 34 42 37 35 36 38 38 48 44 42 45 47 49 53 54 53 66 72 70 70 69 68 68 66
42 55 51 52 50 49 49 50 51 54 55 54 53 56 56 59 59 44 42 57 35 34 38 40 40 48 50 46 51 48 51 52 53 54 54 58 61 69 72 72 71 70 72
34 37 55 48 48 50 49 49 51 49 51 51 53 48 25 29 51 62 44 48 54 53 54 53 49 50 55 60 63 60 56 53 54 55 55 57 60 59 65 73 74 74 73
34 27 30 53 45 46 47 45 45 47 46 49 50 54 56 59 53 46 53 66 62 58 53 54 58 58 58 63 62 56 52 49 49 49 50 52 59 63 60 61 70 74 76
28 24 20 25 38 41 38 36 36 40 40 43 45 48 52 56 58 62 63 64 68 69 65 68 62 58 58 55 53 53 47 43 42 43 46 49 51 54 61 67 70 72 74
31 33 31 27 28 34 37 36 36 37 38 41 43 45 48 51 56 59 63 65 68 74 72 71 69 59 52 50 48 42 42 40 42 44 42 45 45 43 47 54 64 71 76
38 35 33 30 29 29 29 33 35 34 33 39 41 42 44 49 50 53 59 69 71 74 73 70 69 62 57 56 50 46 45 43 43 46 46 45 47 43 45 50 50 49 55
35 33 30 29 31 32 31 33 34 35 38 40 40 39 43 46 48 53 55 61 72 72 65 69 72 71 60 59 53 47 57 57 55 48 44 45 46 46 47 48 50 55 59
25 24 23 22 22 23 24 26 28 32 36 41 44 47 49 50 47 47 48 52 57 69 72 74 74 68 66 62 57 54 53 51 53 53 51 48 51 49 52 55 56 54 56
12 11 12 14 17 20 22 25 27 30 31 34 38 41 43 44 44 42 44 47 47 57 78 72 73 74 69 61 55 56 54 55 55 57 58 54 57 51 51 47 49 51 54
8 12 15 19 21 23 25 26 27 28 29 30 32 35 37 40 44 49 50 47 49 49 52 67 61 57 58 58 60 55 59 65 60 54 54 56 66 58 45 45 49 52 55
12 17 20 23 25 26 26 26 27 29 30 31 31 32 33 32 33 32 32 38 45 55 63 77 83 82 75 67 64 70 62 59 56 48 59 61 58 65 42 38 41 45 49
19 21 24 27 29 30 31 31 31 31 32 33 33 32 32 31 32 35 35 35 36 40 43 53 72 68 66 65 68 71 75 76 63 57 46 61 59 44 40 43 37 46 48
26 25 26 29 31 31 32 32 33 33 33 33 33 31 30 31 34 36 35 36 39 43 42 45 52 62 62 59 55 61 60 57 57 50 54 66 59 45 48 40 45 53 54
28 28 30 30 31 34 36 38 38 37 36 35 34 32 30 29 33 32 38 39 41 43 43 48 51 56 58 59 58 59 59 57 52 54 49 49 53 42 43 49 49 55 59
32 34 37 35 34 37 40 42 40 39 37 36 35 33 33 33 34 35 34 36 39 42 43 43 49 52 55 55 55 58 58 56 59 51 60 62 58 53 47 48 48 52 53
37 37 36 36 35 39 42 45 41 39 38 36 36 35 35 36 38 42 41 41 38 30 34 40 44 45 53 52 56 58 56 56 57 56 57 62 53 50 38 43 49 53 50
40 37 35 33 33 36 40 44 42 39 36 35 35 36 37 36 37 43 47 46 42 39 31 30 36 43 46 49 48 52 54 55 57 55 50 51 51 62 41 47 45 37 46
40 36 33 32 31 32 35 36 35 35 35 35 34 35 35 35 34 37 44 47 46 43 40 36 33 34 37 40 44 47 49 48 51 50 50 49 57 49 61 45 30 35 43
37 32 29 27 25 26 28 30 33 34 33 32 30 31 34 37 38 35 40 42 47 45 43 41 43 44 38 28 38 44 47 49 48 50 39 41 50 46 24 35 31 41 44
Wind_Direction_850mb
253 255 260 263 268 271 278 279 284 287 290 292 294 298 295 294 292 292 291 288 287 287 288 287 286 286 285 284 284 283 281 275 271 267 260 258 260 260 262 268 275 284 290
256 255 257 263 268 274 281 283 285 288 287 288 287 288 294 297 298 297 296 294 291 289 288 289 287 286 285 282 281 280 278 275 268 268 265 262 261 263 263 263 268 276 284
265 265 264 265 270 272 273 274 276 279 283 284 286 289 293 296 296 296 296 294 294 294 295 294 293 290 287 283 280 278 275 273 271 265 264 264 261 259 260 261 263 269 277
270 270 268 270 270 269 271 273 277 279 280 282 286 288 288 291 294 297 297 298 298 297 296 294 293 292 289 287 283 278 275 271 269 267 264 263 264 264 263 261 262 263 266
266 268 270 270 267 267 267 271 273 275 278 282 286 288 289 290 293 295 296 297 297 297 296 296 293 290 288 287 285 282 278 275 270 267 265 262 262 264 263 263 263 263 264
264 266 268 270 268 266 266 266 263 263 269 276 280 285 287 287 288 291 291 298 296 294 295 294 294 294 295 293 291 289 287 284 279 272 266 263 261 261 263 264 264 264 263
261 258 265 268 268 264 264 260 264 265 270 276 280 283 285 287 288 294 303 300 305 299 294 295 299 299 296 294 296 299 298 294 293 287 283 266 262 261 260 261 263 264 265
261 255 252 257 256 258 260 261 263 268 272 277 279 286 289 292 298 300 298 305 300 295 294 294 292 299 299 296 306 302 297 294 292 287 284 280 273 263 260 260 261 261 262
270 257 250 250 253 257 262 260 263 267 272 275 276 274 281 282 295 300 298 296 290 288 298 300 295 294 292 295 297 294 292 290 288 285 282 277 273 273 264 260 259 259 260
266 260 256 245 249 258 265 265 266 267 269 271 276 276 278 282 287 295 293 295 295 297 298 294 295 292 291 289 291 287 288 288 286 287 286 280 274 270 265 258 257 259 262
262 269 250 240 241 257 273 275 272 274 276 276 278 282 285 288 288 288 286 294 297 301 303 303 302 296 293 291 297 292 294 291 285 280 280 281 279 271 265 262 261 261 260
249 255 253 250 243 251 264 269 271 271 274 275 275 278 280 281 285 290 290 293 295 299 302 306 306 303 298 304 305 301 303 293 289 282 277 280 276 279 278 271 266 262 257
251 254 262 262 259 264 270 273 275 273 273 273 277 281 283 283 288 289 290 293 295 302 301 300 305 300 302 311 306 299 301 296 292 289 285 279 278 279 281 281 280 279 272
254 254 253 258 264 271 276 276 277 277 279 276 275 275 274 277 283 286 287 292 296 296 294 295 299 304 302 307 309 303 301 303 299 290 282 275 276 282 277 278 273 271 270
239 243 249 256 264 273 279 283 284 283 280 280 278 278 278 276 272 278 280 284 289 295 294 297 298 304 305 305 303 301 300 299 298 298 283 270 274 271 274 276 278 278 277
237 252 269 279 284 286 286 286 285 287 287 285 285 285 283 280 277 275 277 279 284 288 290 295 299 304 309 306 305 306 303 303 296 294 288 277 274 274 282 282 284 282 283
282 291 294 296 298 299 298 299 300 299 298 297 295 293 291 290 287 281 279 274 275 279 293 291 295 303 309 312 311 306 299 300 297 293 289 278 278 263 281 291 293 287 283
298 302 304 304 305 305 305 306 305 305 306 306 304 301 300 300 299 300 294 285 281 272 278 280 284 290 293 293 297 303 307 303 303 300 298 281 289 292 285 288 297 306 293
292 295 301 306 306 308 309 312 315 315 315 314 315 315 314 313 309 307 309 311 311 307 303 297 293 299 305 304 302 297 294 296 296 296 288 291 291 285 275 286 306 317 314
285 293 302 302 302 305 308 311 312 312 311 311 312 312 314 313 313 313 315 316 315 313 318 317 313 312 311 312 310 313 312 310 313 298 284 287 291 268 265 293 302 314 319
284 296 296 296 300 303 305 307 310 311 310 308 307 308 306 307 305 310 310 315 317 316 314 313 313 314 316 315 317 315 315 311 302 300 295 297 297 272 290 293 301 311 315
289 287 287 288 292 296 301 305 309 310 311 311 312 312 313 311 311 307 310 308 310 308 308 310 309 312 313 314 314 309 307 308 306 302 308 303 303 300 273 288 308 314 317
271 271 274 279 287 293 299 302 306 308 310 313 315 316 317 318 318 317 319 322 319 305 293 296 300 304 307 307 309 307 305 300 297 302 300 300 307 305 292 287 316 316 325
263 264 269 275 282 289 296 301 309 311 314 317 319 318 319 322 320 319 320 324 326 324 318 307 301 300 296 305 304 308 307 299 294 295 300 304 308 306 301 309 301 311 332
257 258 263 270 279 285 291 300 305 311 318 323 328 327 324 323 324 320 318 322 324 324 321 321 313 307 298 294 301 301 298 301 303 303 303 302 306 305 313 315 299 318 329
250 255 261 269 278 289 298 304 311 318 323 327 331 330 327 327 327 325 320 321 322 324 326 327 326 326 326 298 290 295 297 300 300 306 300 304 300 308 310 309 310 313 321